Location: Czernica
(51.0462°N, 17.2458°E)
Time: 01:00:28
(UTC+01:00)

ISS - Pass Details

Date: 28 January 2019
Orbit: 403 x 411 km, 51.6° (Epoch: 22 February)

Event Time Altitude Azimuth Distance (km) Brightness Sun altitude
Rises 17:30:15 0° 235° (SW) 2,326 1.7 -8.9°
Reaches altitude 10° 17:32:22 10° 229° (SW) 1,470 0.2 -9.2°
Maximum altitude 17:35:32 45° 155° (SSE) 567 -3.2 -9.7°
Enters shadow 17:38:04 15° 85° (E) 1,223 -2.0 -10.1°
